[[{"header":{"parameterUnit":"m.s-1","parameterCategory":1,"la1":30.2991,"la2":30.254,"lo1":-89.0895,"lo2":-89.0444,"dy":0.0017,"dx":0.0017,"nx":28,"ny":28,"refTime":"2025-01-24T09:00:00:Z","depth":0,"parameterNumber":2,"parameterNumberName":"U-component_of_WINDS"},"data":[0,0,0,0,0,0,0,0,0,0,0,0,0,0,0,0,0,0,0,0,0,0,0,0,0,0,0,0,0,0,0,0,0,0,0,0,0,0,0,0,0,0,0,0,0,0,0,0,0,0,0,0,0,0,0,0,0,0,3.0205,3.0205,0,3.0265,3.0266,3.0266,3.0268,3.0267,3.0266,3.0266,3.0327,3.0329,3.0331,0,0,0,0,0,0,0,0,0,0,0,0,0,3.0092,3.0094,3.0205,3.0205,3.0206,3.0265,3.0266,3.0266,3.0268,3.0267,3.0266,3.0265,3.0326,3.0328,3.0331,0,0,0,0,0,0,0,0,0,0,0,0,0,3.0145,3.0094,3.0205,3.0214,3.0215,3.0265,3.0266,3.0267,3.0268,3.0267,3.0266,3.0265,3.0325,3.0328,3.0332,3.0375,0,0,3.0342,3.0344,0,0,0,0,0,0,0,0,3.0142,3.0149,3.0212,3.0213,3.0215,3.0258,3.0248,3.0303,3.0268,3.0248,3.0266,3.0264,3.0304,3.031,3.0323,3.0378,3.0381,3.0343,3.0345,3.0346,3.0347,0,0,0,0,0,0,0,3.0138,3.0147,3.0228,3.0213,3.0215,3.0215,3.0222,3.0258,3.0282,3.025,3.025,3.0257,3.0305,3.032,3.0325,3.0381,3.0342,3.0346,3.0348,3.0349,3.0477,3.0478,0,0,0,0,0,0,3.0133,3.0144,3.0227,3.023,3.0175,3.0218,3.0226,3.0245,3.0281,3.0286,3.0258,3.0257,3.0315,3.0321,3.0327,3.0381,3.0346,3.0349,3.0351,3.0475,3.0477,3.0478,0,0,0,0,0,0,3.013,3.014,3.0224,3.0187,3.0198,3.0222,3.0244,3.0247,3.0262,3.0288,3.0292,3.0269,3.0314,3.0322,3.0364,3.0383,3.0351,3.0354,3.0474,3.0476,3.0478,3.0489,0,0,0,0,0,0,3.0127,3.0139,3.0156,3.0187,3.02,3.026,3.0245,3.0249,3.0268,3.0267,3.0299,3.0303,3.0314,3.0358,3.0367,3.0387,3.0357,3.0472,3.0475,3.0477,3.0487,3.0491,3.0495,0,0,0,0,0,3.0123,3.0156,3.0157,3.0167,3.0221,3.0261,3.0268,3.028,3.0269,3.0286,3.0303,3.0302,3.038,3.0363,3.0372,3.0394,3.0471,3.0474,3.0477,3.0485,3.049,3.0494,0,0,0,0,0,0,3.0125,3.016,3.0161,3.0205,3.023,3.0261,3.0282,3.0284,3.0312,3.031,3.0324,3.0331,3.0372,3.0387,3.0368,3.0439,3.0424,3.0429,3.0427,3.0432,3.0436,3.0431,3.036,0,0,0,0,0,3.0131,3.0161,3.019,3.0226,3.0238,3.0258,3.0276,3.0283,3.0309,3.032,3.0339,3.0365,3.0395,3.0414,3.0444,3.0489,3.0497,3.0509,3.0513,3.0516,3.052,3.0547,3.0553,3.0488,3.0488,3.0488,0,0,3.0143,3.0166,3.0183,3.0227,3.0247,3.0277,3.0267,3.0299,3.0322,3.0324,3.0365,3.0381,3.041,3.0454,3.0475,3.0468,3.054,3.052,3.0522,3.0524,3.055,3.0556,3.0562,3.049,3.049,3.0489,0,0,3.0181,3.0201,3.0233,3.0254,3.0285,3.0298,3.0306,3.0337,3.0348,3.0389,3.0392,3.0419,3.0471,3.0492,3.0509,3.0557,3.0557,3.0566,3.0586,3.0612,3.0617,3.0621,3.0639,3.0645,3.057,3.057,3.057,0,3.0191,3.0237,3.025,3.0283,3.0302,3.0307,3.0341,3.036,3.0398,3.0412,3.0404,3.047,3.049,3.0539,3.0551,3.0565,3.0575,3.0562,3.0615,3.062,3.0624,3.0641,3.0647,3.0571,3.0571,3.0571,3.0571,0,3.025,3.0282,3.0305,3.0342,3.0365,3.0398,3.0416,3.0437,3.0443,3.0457,3.05,3.0524,3.0559,3.0571,3.0577,3.0622,3.0617,3.0612,3.0598,3.0631,3.0647,3.0653,3.0572,3.0572,3.0572,3.0572,0,0,3.0289,3.0335,3.0343,3.0361,3.0396,3.0421,3.0455,3.0489,3.0507,3.0534,3.0563,3.0608,3.0604,3.0623,3.0632,3.0654,3.0691,3.0647,3.0648,3.0654,3.0744,3.0747,3.0754,3.0692,3.0693,3.0694,3.0741,0,3.033,3.039,3.0404,3.0456,3.0486,3.0491,3.0521,3.0546,3.0561,3.0589,3.0605,3.0637,3.0629,3.0641,3.0664,3.0682,3.0709,3.0679,3.0719,3.0721,3.0711,3.0763,3.0766,3.0809,3.0748,3.0749,3.075,0,3.0386,3.0415,3.047,3.0503,3.0516,3.0542,3.0576,3.0602,3.0631,3.0641,3.0664,3.067,3.0706,3.0691,3.0741,3.072,3.0737,3.0749,3.0751,3.0755,3.0737,3.0768,3.0823,3.083,3.0759,3.0759,3.0758,0,3.041,3.0463,3.0503,3.0518,3.0556,3.0575,3.0592,3.062,3.064,3.067,3.0683,3.0716,3.0734,3.076,3.0776,3.0763,3.0825,3.081,3.0834,3.0834,3.0846,3.0845,3.0905,3.0858,3.0858,3.0858,3.0857,0,3.0454,3.0488,3.0514,3.0539,3.0577,3.0592,3.063,3.0647,3.0672,3.07,3.0707,3.0734,3.0753,3.0782,3.0794,3.0835,3.0843,3.0851,3.0854,3.0851,3.085,3.0862,3.0859,3.0859,3.0859,3.0859,3.0858,0,3.0487,3.0506,3.055,3.0583,3.0593,3.0619,3.0648,3.0673,3.0688,3.0724,3.0734,3.0758,3.0793,3.0812,3.0855,3.0864,3.0909,3.091,3.0899,3.09,3.0923,3.092,3.0993,3.1003,3.0949,3.0949,3.095,0,3.0514,3.054,3.0577,3.0596,3.0614,3.0646,3.0667,3.0684,3.0705,3.0741,3.0762,3.0797,3.0827,3.0883,3.0904,3.0938,3.094,3.0963,3.0945,3.0941,3.0941,3.0939,3.0942,3.0966,3.0967,3.0967,3.0967,0,3.056,3.0569,3.0599,3.0633,3.0658,3.0686,3.0713,3.0729,3.075,3.0774,3.0811,3.0834,3.0879,3.0914,3.095,3.0968,3.0972,3.0973,3.098,3.0977,3.097,3.0974,3.0908,3.0971,3.0971,3.0971,3.097,3.097,3.0591,3.0615,3.0645,3.0679,3.0701,3.0727,3.0752,3.0771,3.0802,3.084,3.0848,3.0887,3.0917,3.0965,3.0984,3.1015,3.101,3.102,3.1023,3.1025,3.1027,3.0965,3.1021,3.1021,3.1021,3.1021,3.1021,0,3.0638,3.0658,3.0689,3.0727,3.0754,3.0756,3.0786,3.0809,3.0843,3.087,3.0899,3.0942,3.0977,3.1002,3.1038,3.1057,3.106,3.1066,3.1065,3.1069,3.1029,3.1019,3.1064,3.1064,3.1064,3.1064,3.1064,3.1064,3.0665,3.0706,3.0719,3.0771,3.0791,3.0829,3.0846,3.087,3.0892,3.0939,3.0969,3.0985,3.1012,3.105,3.1082,3.1089,3.1102,3.1108,3.1115,3.1076,3.1072,3.1067,3.1058,3.1111,3.1111,3.1153,3.1153,3.1153]},{"header":{"parameterUnit":"m.s-1","parameterCategory":1,"la1":30.2991,"la2":30.254,"lo1":-89.0895,"lo2":-89.0444,"dy":0.0017,"dx":0.0017,"nx":28,"ny":28,"refTime":"2025-01-24T09:00:00:Z","depth":0,"parameterNumber":3,"parameterNumberName":"V-component_of_WINDS"},"data":[0,0,0,0,0,0,0,0,0,0,0,0,0,0,0,0,0,0,0,0,0,0,0,0,0,0,0,0,0,0,0,0,0,0,0,0,0,0,0,0,0,0,0,0,0,0,0,0,0,0,0,0,0,0,0,0,0,0,-4.5131,-4.5131,0,-4.5154,-4.5154,-4.5154,-4.5121,-4.512,-4.5119,-4.5118,-4.5139,-4.5141,-4.5142,0,0,0,0,0,0,0,0,0,0,0,0,0,-4.5057,-4.5058,-4.5131,-4.5131,-4.5131,-4.5154,-4.5154,-4.5154,-4.5122,-4.512,-4.5119,-4.5117,-4.5139,-4.5141,-4.5142,0,0,0,0,0,0,0,0,0,0,0,0,0,-4.5085,-4.5059,-4.5131,-4.5118,-4.5117,-4.5154,-4.5154,-4.5154,-4.5122,-4.512,-4.5118,-4.5117,-4.5138,-4.514,-4.5143,-4.5193,0,0,-4.515,-4.5151,0,0,0,0,0,0,0,0,-4.5084,-4.5088,-4.5119,-4.5119,-4.5118,-4.5133,-4.5136,-4.5167,-4.5122,-4.512,-4.5118,-4.5116,-4.5138,-4.5141,-4.5149,-4.5194,-4.5195,-4.515,-4.5152,-4.5153,-4.5154,0,0,0,0,0,0,0,-4.5082,-4.5087,-4.514,-4.512,-4.5119,-4.511,-4.5112,-4.5141,-4.5138,-4.512,-4.5118,-4.5121,-4.5137,-4.5146,-4.5149,-4.5195,-4.515,-4.5153,-4.5154,-4.5155,-4.5283,-4.5284,0,0,0,0,0,0,-4.5081,-4.5085,-4.5139,-4.514,-4.5096,-4.5113,-4.5115,-4.513,-4.5138,-4.5138,-4.5122,-4.5119,-4.5143,-4.5146,-4.515,-4.5209,-4.5153,-4.5155,-4.5157,-4.5281,-4.5283,-4.5285,0,0,0,0,0,0,-4.508,-4.5087,-4.5138,-4.5112,-4.5118,-4.5116,-4.5133,-4.5131,-4.514,-4.514,-4.5139,-4.5132,-4.5142,-4.5146,-4.5182,-4.5209,-4.5156,-4.5159,-4.5278,-4.5281,-4.5284,-4.5328,0,0,0,0,0,0,-4.5078,-4.5086,-4.5105,-4.5113,-4.512,-4.5171,-4.5134,-4.5133,-4.5145,-4.5141,-4.5149,-4.5148,-4.5141,-4.5179,-4.5185,-4.5211,-4.5161,-4.5276,-4.528,-4.5283,-4.5324,-4.5332,-4.5338,0,0,0,0,0,-4.5075,-4.5116,-4.5107,-4.5113,-4.5144,-4.5173,-4.5177,-4.5168,-4.5147,-4.5166,-4.5166,-4.5148,-4.5205,-4.5183,-4.5189,-4.5217,-4.5274,-4.5279,-4.5283,-4.532,-4.533,-4.5338,0,0,0,0,0,0,-4.511,-4.5117,-4.5106,-4.5151,-4.5162,-4.5167,-4.5191,-4.5178,-4.5194,-4.519,-4.5177,-4.5179,-4.5218,-4.5221,-4.5196,-4.5266,-4.5236,-4.5242,-4.5263,-4.5272,-4.5279,-4.5277,-4.5163,0,0,0,0,0,-4.5124,-4.5148,-4.5151,-4.519,-4.5196,-4.5193,-4.5205,-4.5198,-4.5208,-4.5212,-4.5215,-4.5225,-4.5245,-4.5259,-4.5277,-4.5324,-4.5325,-4.5347,-4.5354,-4.536,-4.5365,-4.539,-4.5399,-4.5299,-4.5299,-4.5299,0,0,-4.515,-4.5157,-4.5172,-4.5197,-4.5205,-4.5229,-4.5197,-4.5224,-4.5242,-4.5216,-4.5251,-4.5253,-4.5264,-4.5306,-4.5324,-4.5309,-4.5393,-4.5365,-4.537,-4.5372,-4.5395,-4.5405,-4.5413,-4.5302,-4.5301,-4.5301,0,0,-4.5212,-4.5219,-4.5253,-4.5261,-4.5274,-4.5272,-4.528,-4.5288,-4.5289,-4.5324,-4.5305,-4.5326,-4.5361,-4.5369,-4.5378,-4.5445,-4.5429,-4.5451,-4.5489,-4.5514,-4.5522,-4.5529,-4.5552,-4.5561,-4.5456,-4.5456,-4.5456,0,-4.5243,-4.528,-4.5271,-4.53,-4.5312,-4.5291,-4.5324,-4.5333,-4.535,-4.5359,-4.5342,-4.5386,-4.5392,-4.5436,-4.5452,-4.546,-4.5469,-4.545,-4.5521,-4.5528,-4.5535,-4.5557,-4.5566,-4.5459,-4.5459,-4.5458,-4.5458,0,-4.5318,-4.5344,-4.537,-4.5389,-4.5403,-4.5434,-4.5429,-4.5445,-4.5437,-4.5436,-4.5472,-4.5478,-4.5498,-4.5508,-4.55,-4.5551,-4.5542,-4.5524,-4.5493,-4.5547,-4.5568,-4.5576,-4.5463,-4.5462,-4.5461,-4.546,0,0,-4.5401,-4.5416,-4.5426,-4.5434,-4.5447,-4.5466,-4.5497,-4.5517,-4.5531,-4.5544,-4.5569,-4.56,-4.5583,-4.5593,-4.5586,-4.5608,-4.566,-4.5587,-4.5587,-4.56,-4.5717,-4.5731,-4.5741,-4.565,-4.5652,-4.5653,-4.5717,0,-4.5463,-4.5516,-4.5509,-4.556,-4.5584,-4.5565,-4.5591,-4.5602,-4.5603,-4.5622,-4.5622,-4.5645,-4.5621,-4.5628,-4.5649,-4.5649,-4.5683,-4.5645,-4.5672,-4.5673,-4.567,-4.5752,-4.5766,-4.5825,-4.5725,-4.5726,-4.5727,0,-4.5541,-4.5558,-4.5612,-4.5622,-4.5632,-4.5656,-4.5674,-4.5694,-4.5705,-4.5704,-4.5717,-4.5705,-4.5735,-4.5705,-4.5746,-4.572,-4.5731,-4.5733,-4.5735,-4.5737,-4.5703,-4.5755,-4.5844,-4.5853,-4.574,-4.5739,-4.5738,0,-4.5596,-4.5633,-4.567,-4.5678,-4.569,-4.5708,-4.5713,-4.5724,-4.5737,-4.5753,-4.5761,-4.578,-4.5791,-4.5805,-4.58,-4.5778,-4.5842,-4.5811,-4.5841,-4.5841,-4.5855,-4.5854,-4.5946,-4.5863,-4.5863,-4.5863,-4.5862,0,-4.5665,-4.5698,-4.5695,-4.5717,-4.5754,-4.5747,-4.5783,-4.5787,-4.5796,-4.5819,-4.5803,-4.5825,-4.5816,-4.5837,-4.5832,-4.5867,-4.5872,-4.5871,-4.587,-4.5872,-4.5872,-4.5879,-4.5874,-4.5865,-4.5864,-4.5864,-4.5863,0,-4.5732,-4.5731,-4.577,-4.578,-4.5783,-4.581,-4.5817,-4.5838,-4.5839,-4.5867,-4.5874,-4.5873,-4.5897,-4.5893,-4.5919,-4.5916,-4.5959,-4.5953,-4.5956,-4.5954,-4.5984,-4.5982,-4.6084,-4.6097,-4.6005,-4.6006,-4.6007,0,-4.5776,-4.5802,-4.5814,-4.5829,-4.5837,-4.586,-4.5874,-4.5868,-4.5882,-4.5898,-4.5917,-4.594,-4.5958,-4.5997,-4.5998,-4.6018,-4.6012,-4.6046,-4.6014,-4.6017,-4.6012,-4.601,-4.6013,-4.6052,-4.6053,-4.6054,-4.6055,0,-4.5854,-4.5853,-4.5873,-4.5895,-4.5912,-4.5928,-4.5942,-4.5955,-4.595,-4.5967,-4.5992,-4.6006,-4.6033,-4.6056,-4.6075,-4.608,-4.6066,-4.6065,-4.6073,-4.6076,-4.6076,-4.6076,-4.5973,-4.6062,-4.6062,-4.6061,-4.6061,-4.606,-4.591,-4.5933,-4.5945,-4.5969,-4.598,-4.5994,-4.6015,-4.6018,-4.6039,-4.6061,-4.6056,-4.6084,-4.6096,-4.612,-4.6127,-4.6149,-4.6136,-4.6148,-4.615,-4.6153,-4.6157,-4.6074,-4.6152,-4.6152,-4.6152,-4.6152,-4.6152,0,-4.5987,-4.5995,-4.6017,-4.6039,-4.6058,-4.6045,-4.6061,-4.6077,-4.6102,-4.6115,-4.6133,-4.6162,-4.6184,-4.6188,-4.6209,-4.6225,-4.622,-4.6231,-4.6229,-4.6231,-4.6167,-4.6158,-4.6235,-4.6235,-4.6235,-4.6235,-4.6235,-4.6235,-4.603,-4.6066,-4.6067,-4.6109,-4.6116,-4.6144,-4.6154,-4.6167,-4.6177,-4.621,-4.6229,-4.6232,-4.6241,-4.6263,-4.6283,-4.6283,-4.6291,-4.6305,-4.6303,-4.6244,-4.6235,-4.6227,-4.6219,-4.6307,-4.6307,-4.6365,-4.6365,-4.6366]}]]